Location: Bismarck
(46.7731°N, 100.8200°W)
Time: 03:21:46
(UTC-05:00)

Amateur Radio Satellites - All Passes

Search period start: 26 July 2016 02:51
Search period end: 27 July 2016 02:51
Location: Bismarck, 46.7731°N, 100.8200°W

Satellite Date Start Highest point End Downlink Frequencies (MHz)
Time Altitude Azimuth
BEESAT 26 Jul 02:59:47 03:04:33 70° 73° (ENE) 03:09:19 436.000
Oscar 19 26 Jul 03:00:30 03:05:35 53° 100° (E) 03:10:38 437.125/150
NANOSAT C BR1 26 Jul 03:04:28 03:06:24 13° 301° (WNW) 03:08:18 145.865
DUCHIFAT 1 26 Jul 03:09:39 03:11:21 12° 302° (WNW) 03:13:03 145.980
Cosmos 2499 26 Jul 03:13:25 03:20:56 41° 69° (ENE) 03:27:52 435.465 / 435.565
ITUPSAT 1 26 Jul 03:21:55 03:26:44 76° 256° (WSW) 03:31:34 437.325
TISAT 1 26 Jul 03:22:07 03:24:34 15° 270° (W) 03:27:02 437.305
GONETS M04 26 Jul 03:29:16 03:38:05 69° 77° (ENE) 03:46:53
BUGSAT 1 26 Jul 03:29:28 03:31:56 15° 299° (WNW) 03:34:24 437.445
KKS-1 26 Jul 03:30:27 03:33:37 20° 62° (ENE) 03:36:48 437.445
ISS 26 Jul 03:46:09 03:49:22 54° 19° (NNE) 03:52:34 145.825
MOZHAYETS 4 26 Jul 03:53:38 03:57:45 32° 67° (ENE) 04:01:53
PCSat 26 Jul 03:57:07 04:01:17 22° 36° (NE) 04:05:25 145.827
CUSAT 1 26 Jul 04:04:48 04:07:12 15° 95° (E) 04:09:19 437.405
Gurwin Techsat 1B 26 Jul 04:09:25 04:14:46 85° 286° (WNW) 04:20:06 435.225
STARS 26 Jul 04:12:22 04:15:59 25° 64° (ENE) 04:19:37 437.465
BEESAT 3 26 Jul 04:13:51 04:17:49 65° 51° (NE) 04:21:44 437.485
JAS-2 26 Jul 04:14:43 04:17:40 15° 303° (WNW) 04:20:42 435.910
DANDE 26 Jul 04:15:23 04:16:55 11° 90° (E) 04:18:21 436.750
BEESAT 2 26 Jul 04:17:12 04:21:02 41° 47° (NE) 04:24:50 435.950
SWISSCUBE 26 Jul 04:17:23 04:21:04 22° 267° (W) 04:24:47 437.505
ITAMSAT 1 26 Jul 04:31:47 04:36:55 55° 101° (E) 04:41:59 435.822/435.867
BEESAT 26 Jul 04:40:03 04:42:50 15° 271° (W) 04:45:37 436.000
Oscar 19 26 Jul 04:40:29 04:44:35 24° 298° (WNW) 04:48:39 437.125/150
AO-7 26 Jul 04:53:45 05:01:33 41° 98° (E) 05:09:15 29.400- 29.500
KKS-1 26 Jul 05:05:30 05:09:49 52° 260° (W) 05:14:12 437.445
Cosmos 2499 26 Jul 05:06:41 05:14:07 45° 273° (W) 05:21:02 435.465 / 435.565
CUBESAT XI-V 26 Jul 05:09:44 05:13:32 26° 65° (ENE) 05:17:19 437.345
ISS 26 Jul 05:22:44 05:25:42 32° 217° (SW) 05:28:38 145.825
GONETS M04 26 Jul 05:27:00 05:34:11 30° 279° (W) 05:41:23
MOZHAYETS 4 26 Jul 05:30:48 05:34:55 31° 265° (W) 05:39:02
PCSat 26 Jul 05:39:57 05:45:26 89° 235° (SW) 05:50:51 145.827
CUSAT 1 26 Jul 05:45:27 05:49:06 32° 284° (WNW) 05:52:04 437.405
STARS 26 Jul 05:48:06 05:52:10 37° 262° (W) 05:56:18 437.465
Gurwin Techsat 1B 26 Jul 05:51:04 05:53:56 15° 305° (NW) 05:56:48 435.225
BEESAT 3 26 Jul 05:52:49 05:55:00 14° 249° (WSW) 05:57:11 437.485
DANDE 26 Jul 05:53:50 05:59:30 85° 284° (WNW) 06:03:41 436.750
BEESAT 2 26 Jul 05:55:26 05:58:40 24° 245° (WSW) 06:01:52 435.950
AIST 2 26 Jul 06:06:46 06:10:34 33° 43° (NE) 06:14:22 435.215
STRAND 1 26 Jul 06:11:05 06:12:08 11° 52° (NE) 06:13:11 437.568
ITAMSAT 1 26 Jul 06:11:58 06:16:02 24° 299° (WNW) 06:20:05 435.822/435.867
BRITE-PL 26 Jul 06:17:19 06:19:15 12° 88° (E) 06:21:14 437.365/2234.400
HORYU 2 26 Jul 06:17:45 06:21:55 36° 97° (E) 06:26:02 437.375
NOAA 15 26 Jul 06:27:27 06:29:29 12° 87° (E) 06:31:30 137.62
O/OREOS (USA 219) 26 Jul 06:34:42 06:38:33 26° 54° (NE) 06:42:24 437.305
CUBESAT XI-V 26 Jul 06:46:25 06:50:44 39° 262° (W) 06:55:05 437.345
AO-7 26 Jul 06:46:29 06:54:32 54° 298° (WNW) 07:02:32 29.400- 29.500
LilacSat-2 26 Jul 07:01:03 07:03:16 15° 90° (E) 07:05:27 437.200
RS-15 26 Jul 07:08:38 07:18:32 36° 105° (ESE) 07:28:51 29.354- 29.394
Cubesat XI-IV 26 Jul 07:17:00 07:21:28 26° 93° (E) 07:25:54 437.490
GOMX 1 26 Jul 07:24:15 07:28:29 27° 94° (E) 07:32:53 467.674
DOVE 4 26 Jul 07:24:49 07:27:25 14° 87° (E) 07:30:02 437.250
PCSat 26 Jul 07:25:08 07:28:01 15° 256° (WSW) 07:30:54 145.827
CUTE-I 26 Jul 07:40:42 07:45:46 41° 98° (E) 07:50:47 437.470
STRAND 1 26 Jul 07:45:14 07:50:19 62° 71° (ENE) 07:55:24 437.568
AIST 2 26 Jul 07:45:17 07:49:04 34° 242° (WSW) 07:52:50 435.215
BRITE-PL 26 Jul 07:53:31 07:58:15 88° 282° (WNW) 08:03:22 437.365/2234.400
HORYU 2 26 Jul 07:54:35 07:58:20 27° 295° (WNW) 08:02:03 437.375
NOAA 15 26 Jul 08:04:45 08:10:03 85° 105° (ESE) 08:15:20 137.62
NOAA 18 26 Jul 08:06:28 08:12:01 66° 103° (ESE) 08:17:30 137.9125
O/OREOS (USA 219) 26 Jul 08:13:51 08:18:05 40° 253° (WSW) 08:22:20 437.305
SO-50 26 Jul 08:25:29 08:28:03 14° 109° (ESE) 08:30:36 436.795
LilacSat-2 26 Jul 08:34:05 08:37:53 49° 287° (WNW) 08:41:36 437.200
PRISM 26 Jul 08:36:48 08:40:13 26° 66° (ENE) 08:43:39 437.425
AO-7 26 Jul 08:40:57 08:45:30 16° 321° (NW) 08:50:03 29.400- 29.500
SEEDS 26 Jul 08:43:34 08:44:25 11° 87° (E) 08:45:17 437.485
Cubesat XI-IV 26 Jul 08:56:38 09:01:46 48° 292° (WNW) 09:06:52 437.490
Cosmos 2491 26 Jul 08:57:30 09:05:41 41° 69° (ENE) 09:13:51 435.465 / 435.565
COMPASS 1 26 Jul 08:57:39 08:58:22 10° 87° (E) 08:59:05 437.405
DOVE 4 26 Jul 09:00:34 09:05:41 86° 282° (WNW) 09:10:58 437.250
GOMX 1 26 Jul 09:01:59 09:06:41 44° 290° (WNW) 09:11:39 467.674
CUBEBUG 2 26 Jul 09:02:10 09:02:48 10° 85° (E) 09:03:24 437.445
RS-15 26 Jul 09:18:19 09:29:55 78° 310° (NW) 09:42:14 29.354- 29.394
CINEMA 3 26 Jul 09:20:42 09:25:37 50° 99° (E) 09:30:28 145.822/145.860
CUTE-I 26 Jul 09:21:01 09:25:41 31° 296° (WNW) 09:30:19 437.470
CANX-2 26 Jul 09:21:40 09:25:43 43° 98° (E) 09:29:43 2200.000
AAUSAT CUBESAT 2 26 Jul 09:25:22 09:28:06 17° 91° (E) 09:30:49 437.432
UNISAT 6 26 Jul 09:25:33 09:26:30 11° 55° (NE) 09:27:28 437.425
STRAND 1 26 Jul 09:26:17 09:29:55 19° 269° (W) 09:33:33 437.568
HO-68 26 Jul 09:30:42 09:37:43 51° 100° (E) 09:44:39 435.675
BRITE-PL 26 Jul 09:34:01 09:36:09 13° 301° (WNW) 09:38:23 437.365/2234.400
CUTE 1.7 + AOD 2 26 Jul 09:35:16 09:39:25 52° 100° (E) 09:43:31 437.475
NOAA 15 26 Jul 09:45:57 09:49:09 17° 304° (WNW) 09:52:21 137.62
NOAA 18 26 Jul 09:48:00 09:52:12 22° 302° (WNW) 09:56:22 137.9125
ANTELSAT 26 Jul 10:01:03 10:04:35 22° 63° (ENE) 10:08:09 437.575/2403.000
SO-50 26 Jul 10:02:59 10:07:52 88° 304° (NW) 10:12:44 436.795
PRISM 26 Jul 10:11:51 10:15:28 30° 263° (W) 10:19:04 437.425
UWE-3 26 Jul 10:15:48 10:20:09 38° 96° (E) 10:24:22 435.000/436.395/437.385
SEEDS 26 Jul 10:16:30 10:20:41 78° 285° (WNW) 10:24:50 437.485
FUNcube-1 26 Jul 10:18:54 10:22:39 25° 93° (E) 10:26:19 145.935
ZACube-1 26 Jul 10:19:08 10:23:01 27° 94° (E) 10:26:48 437.345
YUBILEINY 26 Jul 10:29:43 10:38:07 53° 89° (E) 10:46:35 435.215
COMPASS 1 26 Jul 10:30:20 10:34:28 78° 286° (WNW) 10:38:36 437.405
CUBEBUG 2 26 Jul 10:35:23 10:40:11 84° 104° (ESE) 10:44:50 437.445
DOVE 4 26 Jul 10:39:59 10:42:42 15° 302° (WNW) 10:45:25 437.250
TIGRISAT 26 Jul 10:41:54 10:46:20 47° 70° (ENE) 10:50:52 435.000
NANOSAT C BR1 26 Jul 10:49:46 10:50:42 11° 57° (ENE) 10:51:38 145.865
DUCHIFAT 1 26 Jul 10:54:15 10:55:29 11° 57° (ENE) 10:56:43 145.980
Cosmos 2491 26 Jul 10:54:24 11:02:43 51° 271° (W) 11:11:04 435.465 / 435.565
UNISAT 6 26 Jul 10:57:43 11:02:20 71° 74° (ENE) 11:07:03 437.425
CANX-2 26 Jul 10:58:10 11:01:18 21° 296° (WNW) 11:04:26 2200.000
Cosmos 2504 26 Jul 10:58:22 11:05:39 30° 81° (E) 11:12:54 435.465 / 435.565
CINEMA 3 26 Jul 10:58:25 11:02:26 25° 296° (WNW) 11:06:26 145.822/145.860
AAUSAT CUBESAT 2 26 Jul 10:59:53 11:03:51 47° 288° (WNW) 11:07:47 437.432
M-CUBED/EXP-1 PRIME 26 Jul 11:00:16 11:03:53 22° 98° (E) 11:07:30 437.505
Oscar 11 26 Jul 11:02:30 11:06:51 75° 103° (ESE) 11:11:08 145.826/435.025
QB50P1 26 Jul 11:09:26 11:12:14 17° 62° (ENE) 11:15:04 145.935-145.965
CUTE 1.7 + AOD 2 26 Jul 11:12:05 11:14:53 17° 298° (WNW) 11:17:40 437.475
POPSAT HIP 1 26 Jul 11:15:29 11:18:32 20° 63° (ENE) 11:21:36 437.405
HO-68 26 Jul 11:18:45 11:25:15 38° 300° (WNW) 11:31:43 435.675
AUBIESAT-1 26 Jul 11:26:56 11:31:06 32° 101° (E) 11:35:13 437.475
DELFI C3 26 Jul 11:31:11 11:35:07 69° 101° (E) 11:39:03 145.870
RS-15 26 Jul 11:33:51 11:44:41 38° 340° (NNW) 11:55:55 29.354- 29.394
QB50P2 26 Jul 11:35:17 11:39:02 31° 67° (ENE) 11:42:51 145.880/145.840
ANTELSAT 26 Jul 11:36:27 11:40:57 50° 261° (W) 11:45:33 437.575/2403.000
POLYITAN 1 26 Jul 11:37:53 11:41:41 32° 67° (ENE) 11:45:31 437.675
HUMSAT D 26 Jul 11:42:36 11:46:39 44° 98° (E) 11:50:37 437.325/437.525
SO-50 26 Jul 11:45:22 11:49:02 21° 327° (NNW) 11:52:40 436.795
UWE-3 26 Jul 11:52:33 11:56:26 27° 295° (WNW) 12:00:15 435.000/436.395/437.385
FUNcube-1 26 Jul 11:54:49 11:58:59 37° 291° (WNW) 12:03:03 145.935
ZACube-1 26 Jul 11:55:13 11:59:21 35° 292° (WNW) 12:03:22 437.345
ESTCUBE 1 26 Jul 12:04:07 12:06:38 15° 89° (E) 12:09:08 437.505/2401.250
CUBEBUG 2 26 Jul 12:13:36 12:16:06 14° 302° (WNW) 12:18:36 437.445
TIGRISAT 26 Jul 12:19:43 12:23:17 21° 268° (W) 12:26:53 435.000
NANOSAT C BR1 26 Jul 12:21:28 12:25:42 84° 76° (ENE) 12:29:59 145.865
VELOX 1 26 Jul 12:25:11 12:27:30 14° 89° (E) 12:29:49 145.980
DUCHIFAT 1 26 Jul 12:26:15 12:30:28 88° 86° (E) 12:34:46 145.980
YUBILEINY 26 Jul 12:27:02 12:35:10 40° 291° (WNW) 12:43:25 435.215
CUBEBUG 1 26 Jul 12:28:28 12:31:25 17° 91° (E) 12:34:22 437.445
M-CUBED/EXP-1 PRIME 26 Jul 12:34:04 12:38:36 52° 294° (WNW) 12:43:11 437.505
UNISAT 6 26 Jul 12:37:01 12:39:34 14° 272° (W) 12:42:08 437.425
Oscar 11 26 Jul 12:40:15 12:42:24 14° 301° (WNW) 12:44:34 145.826/435.025
JAS-2 26 Jul 12:43:03 12:48:49 51° 70° (ENE) 12:54:03 435.910
QB50P1 26 Jul 12:43:27 12:47:37 54° 260° (W) 12:51:50 145.935-145.965
Oscar 19 26 Jul 12:43:32 12:46:40 17° 57° (ENE) 12:49:48 437.125/150
BUGSAT 1 26 Jul 12:45:00 12:49:03 64° 73° (ENE) 12:53:11 437.445
Cosmos 2504 26 Jul 12:49:28 12:58:20 71° 282° (WNW) 13:07:10 435.465 / 435.565
POPSAT HIP 1 26 Jul 12:49:53 12:53:59 47° 261° (W) 12:58:09 437.405
AUBIESAT-1 26 Jul 13:01:19 13:05:30 35° 298° (WNW) 13:09:43 437.475
DELFI C3 26 Jul 13:07:45 13:09:27 12° 300° (WNW) 13:11:09 145.870
AISAT 26 Jul 13:08:30 13:12:41 39° 98° (E) 13:16:52 437.250
50 SAT 26 Jul 13:09:36 13:13:00 37° 98° (E) 13:16:22 437.505
QB50P2 26 Jul 13:11:12 13:14:52 27° 265° (W) 13:18:32 145.880/145.840
DX 1 26 Jul 13:11:48 13:15:39 29° 96° (E) 13:19:29 434.975-435.025
POLYITAN 1 26 Jul 13:13:52 13:17:30 27° 265° (W) 13:21:10 437.675
HUMSAT D 26 Jul 13:18:53 13:21:59 20° 297° (WNW) 13:25:01 437.325/437.525
UKube-1 26 Jul 13:27:13 13:31:10 33° 97° (E) 13:35:05 .
ESTCUBE 1 26 Jul 13:39:26 13:43:54 65° 287° (WNW) 13:48:20 437.505/2401.250
RS-15 26 Jul 13:50:35 14:01:30 36° 14° (NNE) 14:12:33 29.354- 29.394
Gurwin Techsat 1B 26 Jul 13:54:29 13:59:06 31° 64° (ENE) 14:03:44 435.225
AO-85 26 Jul 13:59:44 14:02:40 15° 109° (ESE) 14:05:33 145.980
VELOX 1 26 Jul 14:00:00 14:04:25 68° 288° (WNW) 14:08:50 145.980
NANOSAT C BR1 26 Jul 14:01:32 14:02:02 10° 273° (W) 14:02:32 145.865
SPROUT 26 Jul 14:02:09 14:06:28 66° 101° (ESE) 14:10:46 437.525
CUBEBUG 1 26 Jul 14:03:44 14:08:01 53° 288° (WNW) 14:12:18 437.445
AO-7 26 Jul 14:06:47 14:12:25 20° 44° (NE) 14:18:02 29.400- 29.500
ITAMSAT 1 26 Jul 14:15:26 14:18:56 18° 58° (ENE) 14:22:26 435.822/435.867
Oscar 19 26 Jul 14:20:13 14:25:21 82° 257° (WSW) 14:30:30 437.125/150
BUGSAT 1 26 Jul 14:23:01 14:24:53 13° 271° (W) 14:26:46 437.445
JAS-2 26 Jul 14:29:16 14:34:09 26° 266° (W) 14:38:42 435.910
AIST 1 26 Jul 14:39:35 14:43:49 80° 97° (E) 14:48:06
GONETS M04 26 Jul 14:42:32 14:46:58 15° 72° (ENE) 14:51:25
50 SAT 26 Jul 14:43:58 14:46:23 17° 296° (WNW) 14:48:46 437.505
AISAT 26 Jul 14:45:22 14:48:59 25° 296° (WNW) 14:52:36 437.250
Cosmos 2504 26 Jul 14:47:41 14:53:28 19° 305° (NW) 14:59:16 435.465 / 435.565
DX 1 26 Jul 14:47:58 14:51:49 31° 294° (WNW) 14:55:40 434.975-435.025
BEESAT 26 Jul 14:58:32 15:01:02 14° 89° (E) 15:03:33 436.000
TISAT 1 26 Jul 15:00:49 15:05:06 68° 103° (ESE) 15:09:19 437.305
UKube-1 26 Jul 15:03:27 15:07:06 27° 295° (WNW) 15:10:45 .
SO-50 26 Jul 15:12:37 15:14:07 11° 17° (NNE) 15:15:37 436.795
ITUPSAT 1 26 Jul 15:20:09 15:23:52 22° 93° (E) 15:27:34 437.325
Gurwin Techsat 1B 26 Jul 15:33:55 15:38:55 41° 262° (W) 15:43:58 435.225
AO-85 26 Jul 15:37:10 15:42:33 87° 127° (SE) 15:47:40 145.980
SPROUT 26 Jul 15:39:25 15:41:55 15° 300° (WNW) 15:44:25 437.525
ITAMSAT 1 26 Jul 15:52:36 15:57:50 75° 256° (WSW) 16:03:05 435.822/435.867
Cosmos 2499 26 Jul 15:52:47 16:00:20 33° 83° (E) 16:07:43 435.465 / 435.565
AO-7 26 Jul 15:55:30 16:03:47 70° 66° (ENE) 16:12:06 29.400- 29.500
Oscar 19 26 Jul 16:04:07 16:05:29 11° 274° (W) 16:06:52 437.125/150
RS-15 26 Jul 16:04:31 16:16:50 67° 45° (NE) 16:29:04 29.354- 29.394
SWISSCUBE 26 Jul 16:13:06 16:17:53 78° 103° (ESE) 16:22:37 437.505
CUSAT 1 26 Jul 16:13:52 16:16:34 39° 261° (W) 16:19:47 437.405
AIST 1 26 Jul 16:20:40 16:22:03 11° 297° (WNW) 16:23:26
DANDE 26 Jul 16:29:21 16:31:57 78° 78° (ENE) 16:34:40 436.750
GONETS M04 26 Jul 16:33:30 16:42:05 71° 94° (E) 16:50:47
BEESAT 26 Jul 16:34:36 16:39:23 74° 286° (WNW) 16:44:07 436.000
TISAT 1 26 Jul 16:37:53 16:40:13 15° 300° (WNW) 16:42:34 437.305
SO-50 26 Jul 16:51:52 16:56:06 32° 40° (NE) 17:00:12 436.795
KKS-1 26 Jul 16:53:49 16:57:29 24° 94° (E) 17:01:07 437.445
ITUPSAT 1 26 Jul 16:57:22 17:01:57 47° 290° (WNW) 17:06:30 437.325
Cubesat XI-IV 26 Jul 17:07:18 17:07:50 10° 50° (NE) 17:08:23 437.490
HORYU 2 26 Jul 17:18:13 17:22:31 48° 70° (ENE) 17:26:53 437.375
AO-85 26 Jul 17:19:29 17:23:38 23° 325° (NW) 17:27:35 145.980
MOZHAYETS 4 26 Jul 17:22:12 17:26:40 50° 99° (E) 17:31:06
CUTE-I 26 Jul 17:28:19 17:31:23 16° 55° (NE) 17:34:27 437.470
BRITE-PL 26 Jul 17:31:29 17:34:03 16° 61° (ENE) 17:36:37 437.365/2234.400
STARS 26 Jul 17:34:21 17:38:20 31° 96° (E) 17:42:17 437.465
ITAMSAT 1 26 Jul 17:37:29 17:38:11 10° 275° (W) 17:38:53 435.822/435.867
Cosmos 2499 26 Jul 17:44:07 17:52:56 65° 283° (WNW) 18:01:32 435.465 / 435.565
LilacSat-2 26 Jul 17:46:42 17:48:23 12° 61° (ENE) 17:50:03 437.200
NOAA 15 26 Jul 17:49:14 17:53:37 28° 62° (ENE) 17:58:00 137.62
AO-7 26 Jul 17:50:03 17:57:10 30° 266° (W) 18:04:21 29.400- 29.500
SWISSCUBE 26 Jul 17:52:19 17:55:05 16° 302° (WNW) 17:57:50 437.505
NOAA 18 26 Jul 17:56:30 18:01:04 27° 61° (ENE) 18:05:39 137.9125
BEESAT 26 Jul 18:14:53 18:16:20 11° 305° (NW) 18:17:47 436.000
RS-15 26 Jul 18:17:33 18:28:58 47° 250° (WSW) 18:40:15 29.354- 29.394
HO-68 26 Jul 18:19:52 18:22:49 13° 43° (NE) 18:25:45 435.675
KKS-1 26 Jul 18:29:59 18:34:10 39° 292° (WNW) 18:38:21 437.445
SO-50 26 Jul 18:32:18 18:36:43 43° 241° (WSW) 18:40:59 436.795
GONETS M04 26 Jul 18:32:25 18:39:45 30° 297° (WNW) 18:47:10
DOVE 4 26 Jul 18:33:35 18:36:18 16° 59° (ENE) 18:39:05 437.250
GOMX 1 26 Jul 18:35:52 18:39:35 32° 67° (ENE) 18:43:28 467.674
PHONESAT 2.4 26 Jul 18:38:05 18:39:39 13° 159° (SSE) 18:41:12 2401.200-2431.200
CUBESAT XI-V 26 Jul 18:39:38 18:44:00 40° 98° (E) 18:48:21 437.345
Cubesat XI-IV 26 Jul 18:41:32 18:46:48 56° 70° (ENE) 18:52:04 437.490
HORYU 2 26 Jul 18:56:04 18:59:20 20° 268° (W) 19:02:38 437.375
MOZHAYETS 4 26 Jul 19:00:06 19:03:31 21° 297° (WNW) 19:06:53
CUTE-I 26 Jul 19:05:17 19:10:40 87° 74° (ENE) 19:16:05 437.470
BRITE-PL 26 Jul 19:08:06 19:12:10 53° 260° (W) 19:16:17 437.365/2234.400
STARS 26 Jul 19:10:46 19:14:39 30° 294° (WNW) 19:18:31 437.465
LilacSat-2 26 Jul 19:18:17 19:22:09 68° 259° (W) 19:26:03 437.200
NOAA 15 26 Jul 19:28:09 19:33:10 46° 261° (W) 19:38:14 137.62
NOAA 18 26 Jul 19:36:02 19:41:25 53° 259° (W) 19:46:52 137.9125
SEEDS 26 Jul 19:37:54 19:39:39 12° 59° (ENE) 19:41:24 437.485
Cosmos 2499 26 Jul 19:42:43 19:47:55 17° 306° (NW) 19:53:03 435.465 / 435.565
BEESAT 3 26 Jul 19:44:13 19:47:56 43° 120° (ESE) 19:51:42 437.485
BEESAT 2 26 Jul 19:49:30 19:52:52 27° 116° (ESE) 19:56:15 435.950
COMPASS 1 26 Jul 19:51:03 19:52:37 12° 59° (ENE) 19:54:12 437.405
STRAND 1 26 Jul 19:53:59 19:57:13 17° 90° (E) 20:00:26 437.568
HO-68 26 Jul 20:02:03 20:08:55 51° 64° (ENE) 20:15:51 435.675
CUBEBUG 2 26 Jul 20:02:04 20:04:23 14° 58° (ENE) 20:06:44 437.445
DOVE 4 26 Jul 20:09:12 20:13:27 63° 259° (W) 20:17:59 437.250
PHONESAT 2.4 26 Jul 20:12:59 20:15:34 24° 175° (S) 20:18:08 2401.200-2431.200
GOMX 1 26 Jul 20:14:15 20:17:46 26° 267° (W) 20:21:24 467.674
CANX-2 26 Jul 20:16:54 20:20:58 44° 71° (ENE) 20:25:02 2200.000
CUBESAT XI-V 26 Jul 20:17:26 20:21:11 25° 295° (WNW) 20:24:55 437.345
AAUSAT CUBESAT 2 26 Jul 20:18:34 20:21:22 18° 63° (ENE) 20:24:10 437.432
Cubesat XI-IV 26 Jul 20:23:03 20:27:12 23° 268° (W) 20:31:25 437.490
PCSat 26 Jul 20:24:20 20:29:30 46° 115° (ESE) 20:34:40 145.827
CINEMA 3 26 Jul 20:24:53 20:29:20 59° 72° (ENE) 20:34:02 145.822/145.860
Oscar 11 26 Jul 20:27:40 20:28:34 11° 57° (ENE) 20:29:28 145.826/435.025
CUTE 1.7 + AOD 2 26 Jul 20:30:20 20:34:30 53° 72° (ENE) 20:38:40 437.475
YUBILEINY 26 Jul 20:36:12 20:43:51 31° 64° (ENE) 20:51:25 435.215
AO-85 26 Jul 20:48:00 20:48:41 10° 14° (NNE) 20:49:21 145.980
Cosmos 2504 26 Jul 20:48:32 20:51:48 13° 48° (NE) 20:54:59 435.465 / 435.565
CUTE-I 26 Jul 20:48:42 20:51:26 14° 273° (W) 20:54:11 437.470
O/OREOS (USA 219) 26 Jul 20:51:29 20:54:08 16° 99° (E) 20:56:47 437.305
SEEDS 26 Jul 21:10:31 21:14:45 80° 256° (WSW) 21:19:00 437.485
UWE-3 26 Jul 21:15:04 21:19:24 43° 70° (ENE) 21:23:49 435.000/436.395/437.385
FUNcube-1 26 Jul 21:16:48 21:20:43 29° 66° (ENE) 21:24:41 145.935
ZACube-1 26 Jul 21:17:19 21:21:19 31° 67° (ENE) 21:25:22 437.345
BEESAT 3 26 Jul 21:22:28 21:25:46 25° 319° (NW) 21:29:07 437.485
COMPASS 1 26 Jul 21:23:23 21:27:34 82° 257° (WSW) 21:31:46 437.405
BEESAT 2 26 Jul 21:26:54 21:30:35 36° 315° (NW) 21:34:19 435.950
STRAND 1 26 Jul 21:31:49 21:36:56 70° 287° (WNW) 21:42:00 437.568
CUBEBUG 2 26 Jul 21:35:41 21:40:17 86° 257° (WSW) 21:45:03 437.445
AIST 2 26 Jul 21:45:35 21:48:51 23° 114° (ESE) 21:52:09 435.215
PHONESAT 2.4 26 Jul 21:49:12 21:51:35 20° 192° (SSW) 21:53:58 2401.200-2431.200
M-CUBED/EXP-1 PRIME 26 Jul 21:49:13 21:52:45 35° 62° (ENE) 21:56:33 437.505
PRISM 26 Jul 21:50:08 21:53:40 27° 96° (E) 21:57:11 437.425
HO-68 26 Jul 21:50:20 21:56:51 37° 264° (W) 22:03:25 435.675
AAUSAT CUBESAT 2 26 Jul 21:52:28 21:56:30 49° 261° (W) 22:00:34 437.432
CANX-2 26 Jul 21:53:55 21:57:02 19° 268° (W) 22:00:10 2200.000
Oscar 11 26 Jul 21:59:36 22:03:57 81° 75° (ENE) 22:08:20 145.826/435.025
Cosmos 2491 26 Jul 22:02:38 22:10:35 42° 86° (E) 22:18:33 435.465 / 435.565
CINEMA 3 26 Jul 22:03:57 22:06:55 17° 271° (W) 22:10:00 145.822/145.860
ISS 26 Jul 22:04:39 22:06:43 16° 136° (SE) 22:08:47 145.825
CUTE 1.7 + AOD 2 26 Jul 22:07:58 22:10:39 16° 270° (W) 22:13:22 437.475
PCSat 26 Jul 22:08:06 22:13:02 35° 315° (NW) 22:18:01 145.827
AUBIESAT-1 26 Jul 22:15:28 22:19:15 55° 66° (ENE) 22:23:21 437.475
DELFI C3 26 Jul 22:19:28 22:23:23 58° 74° (ENE) 22:27:18 145.870
AO-85 26 Jul 22:26:50 22:30:48 27° 38° (NE) 22:34:28 145.980
O/OREOS (USA 219) 26 Jul 22:28:37 22:33:01 61° 298° (WNW) 22:37:28 437.305
YUBILEINY 26 Jul 22:32:39 22:41:25 69° 267° (W) 22:50:08 435.215
HUMSAT D 26 Jul 22:36:10 22:40:16 45° 71° (ENE) 22:44:23 437.325/437.525
Cosmos 2504 26 Jul 22:39:29 22:47:37 54° 74° (ENE) 22:55:06 435.465 / 435.565
UNISAT 6 26 Jul 22:48:33 22:50:36 13° 87° (E) 22:52:38 437.425
UWE-3 26 Jul 22:52:23 22:56:02 23° 268° (W) 22:59:46 435.000/436.395/437.385
FUNcube-1 26 Jul 22:52:44 22:56:52 34° 264° (W) 23:01:03 145.935
ZACube-1 26 Jul 22:53:30 22:57:33 32° 265° (W) 23:01:41 437.345
ESTCUBE 1 26 Jul 23:06:13 23:09:30 20° 62° (ENE) 23:12:47 437.505/2401.250
STRAND 1 26 Jul 23:13:25 23:15:11 12° 307° (NW) 23:16:57 437.568
CUBEBUG 2 26 Jul 23:16:47 23:17:39 10° 275° (W) 23:18:32 437.445
AIST 2 26 Jul 23:23:09 23:27:06 44° 313° (NW) 23:31:06 435.215
M-CUBED/EXP-1 PRIME 26 Jul 23:24:22 23:27:24 22° 262° (W) 23:30:39 437.505
VELOX 1 26 Jul 23:25:05 23:28:08 19° 62° (ENE) 23:31:12 145.980
PRISM 26 Jul 23:25:24 23:28:57 29° 293° (WNW) 23:32:30 437.425
ANTELSAT 26 Jul 23:25:32 23:29:35 29° 94° (E) 23:33:32 437.575/2403.000
CUBEBUG 1 26 Jul 23:27:14 23:30:28 21° 63° (ENE) 23:33:45 437.445
Oscar 11 26 Jul 23:39:24 23:40:39 11° 273° (W) 23:41:56 145.826/435.025
ISS 26 Jul 23:39:29 23:42:45 90° 144° (SE) 23:46:01 145.825
50 SAT 26 Jul 23:49:57 23:53:05 27° 68° (ENE) 23:56:14 437.505
AUBIESAT-1 26 Jul 23:51:55 23:54:09 15° 266° (W) 23:56:29 437.475
PCSat 26 Jul 23:56:16 23:58:10 12° 339° (NNW) 00:00:03 145.827
DELFI C3 26 Jul 23:56:40 23:58:37 13° 271° (W) 00:00:32 145.870
Cosmos 2491 26 Jul 23:58:55 00:07:17 49° 288° (WNW) 00:15:43 435.465 / 435.565
NANOSAT C BR1 27 Jul 00:05:17 00:06:36 11° 88° (E) 00:07:54 145.865
TIGRISAT 27 Jul 00:06:59 00:11:39 69° 102° (ESE) 00:16:12 435.000
AO-85 27 Jul 00:07:12 00:11:29 47° 240° (WSW) 00:15:24 145.980
AISAT 27 Jul 00:08:24 00:12:38 49° 71° (ENE) 00:16:54 437.250
DUCHIFAT 1 27 Jul 00:09:34 00:11:07 12° 88° (E) 00:12:39 145.980
DX 1 27 Jul 00:09:54 00:13:52 37° 68° (ENE) 00:17:52 434.975-435.025
O/OREOS (USA 219) 27 Jul 00:12:28 00:13:25 11° 319° (NW) 00:14:22 437.305
HUMSAT D 27 Jul 00:12:57 00:16:06 20° 268° (W) 00:19:16 437.325/437.525
UNISAT 6 27 Jul 00:23:14 00:27:55 79° 287° (WNW) 00:32:29 437.425
UKube-1 27 Jul 00:24:17 00:28:19 41° 69° (ENE) 00:32:22 .
QB50P1 27 Jul 00:25:55 00:29:05 20° 92° (E) 00:32:14 145.935-145.965
YUBILEINY 27 Jul 00:32:06 00:36:28 15° 289° (WNW) 00:40:50 435.215
POPSAT HIP 1 27 Jul 00:32:09 00:35:33 22° 93° (E) 00:38:56 437.405
Cosmos 2504 27 Jul 00:33:25 00:40:38 35° 276° (W) 00:47:23 435.465 / 435.565
ESTCUBE 1 27 Jul 00:41:37 00:45:59 50° 260° (W) 00:50:22 437.505/2401.250
AIST 1 27 Jul 00:43:48 00:47:29 26° 72° (ENE) 00:51:10
QB50P2 27 Jul 00:52:33 00:56:36 38° 98° (E) 01:00:36 145.880/145.840
POLYITAN 1 27 Jul 00:55:11 00:59:15 39° 98° (E) 01:03:16 437.675
SPROUT 27 Jul 00:58:08 01:02:23 72° 75° (ENE) 01:06:41 437.525
VELOX 1 27 Jul 00:59:57 01:04:13 53° 259° (W) 01:08:33 145.980
ANTELSAT 27 Jul 01:02:06 01:06:19 35° 293° (WNW) 01:10:28 437.575/2403.000
CUBEBUG 1 27 Jul 01:02:23 01:06:30 44° 261° (W) 01:10:40 437.445
AIST 2 27 Jul 01:05:20 01:06:40 11° 335° (NNW) 01:07:59 435.215
ISS 27 Jul 01:16:24 01:19:26 35° 353° (N) 01:22:29 145.825
50 SAT 27 Jul 01:23:43 01:26:42 23° 265° (W) 01:29:41 437.505
JAS-2 27 Jul 01:33:12 01:37:53 31° 96° (E) 01:42:51 435.910
NANOSAT C BR1 27 Jul 01:38:35 01:42:53 78° 285° (WNW) 01:47:08 145.865
Cosmos 2499 27 Jul 01:41:53 01:45:14 13° 49° (NE) 01:48:30 435.465 / 435.565
DUCHIFAT 1 27 Jul 01:43:03 01:47:20 75° 287° (WNW) 01:51:34 145.980
TIGRISAT 27 Jul 01:44:54 01:47:47 16° 300° (WNW) 01:50:38 435.000
AISAT 27 Jul 01:46:19 01:49:24 19° 268° (W) 01:52:30 437.250
SWISSCUBE 27 Jul 01:46:32 01:49:42 18° 59° (ENE) 01:52:51 437.505
DX 1 27 Jul 01:46:39 01:50:10 24° 266° (W) 01:53:43 434.975-435.025
TISAT 1 27 Jul 01:54:53 01:59:04 73° 75° (ENE) 02:03:19 437.305
BUGSAT 1 27 Jul 01:59:00 02:03:17 75° 102° (ESE) 02:07:32 437.445
QB50P1 27 Jul 02:00:59 02:05:04 44° 290° (WNW) 02:09:08 145.935-145.965
UKube-1 27 Jul 02:01:13 02:04:32 21° 267° (W) 02:07:51 .
UNISAT 6 27 Jul 02:02:19 02:03:48 11° 304° (NW) 02:05:17 437.425
Cosmos 2491 27 Jul 02:04:03 02:06:50 12° 314° (NW) 02:09:38 435.465 / 435.565
BEESAT 27 Jul 02:07:10 02:10:57 24° 62° (ENE) 02:14:46 436.000
POPSAT HIP 1 27 Jul 02:07:28 02:11:28 39° 291° (WNW) 02:15:27 437.405
AIST 1 27 Jul 02:21:15 02:25:05 31° 270° (W) 02:28:56
BEESAT 3 27 Jul 02:22:07 02:24:10 14° 31° (NNE) 02:26:13 437.485
BEESAT 2 27 Jul 02:28:13 02:29:17 11° 26° (NNE) 02:30:21 435.950
QB50P2 27 Jul 02:28:46 02:32:12 23° 295° (WNW) 02:35:36 145.880/145.840
Oscar 19 27 Jul 02:29:08 02:33:36 28° 94° (E) 02:38:02 437.125/150
ITUPSAT 1 27 Jul 02:29:21 02:33:43 36° 67° (ENE) 02:38:06 437.325
POLYITAN 1 27 Jul 02:31:26 02:34:51 23° 296° (WNW) 02:38:14 437.675
SPROUT 27 Jul 02:37:04 02:38:51 12° 272° (W) 02:40:37 437.525
